Regional Weather Roundup
Issued by NWS Sioux Falls, SD

Home | Current Version | Previous Version | Graphics & Text | Print | Product List | Glossary Off
Versions: 1 2 3 4 5 6 7 8 9 10 11 12 13 14 15 16 17 18 19 20 21 22 23 24 25 26 27 28 29 30 31 32 33 34 35 36 37 38 39 40 41 42 43 44 45 46 47 48 49 50

122
ASUS43 KFSD 230802
RWRFSD

WEATHER ROUNDUP FOR SE SOUTH DAKOTA/SW MINNESOTA/NW IOWA
NATIONAL WEATHER SERVICE SIOUX FALLS SD
300 AM CDT SUN JUL 23 2017

NOTE: "FAIR" INDICATES FEW OR NO CLOUDS BELOW 12,000 FEET WITH NO
SIGNIFICANT WEATHER AND OR OBSTRUCTIONS TO VISIBILITY.


SDZ038>040-050-052>070-230900-
SOUTHEAST SOUTH DAKOTA

CITY           SKY/WX    TMP DP  RH WIND       PRES   REMARKS
BROOKINGS      CLEAR     64  59  83 CALM      29.96S
CHAMBERLAIN    CLEAR     72  54  51 N7        29.99S
HURON          CLEAR     62  60  93 NW5       29.97S
MADISON        FAIR      63  63 100 N8        29.97S
MITCHELL       CLEAR     66  58  75 N7        29.96S
SIOUX FALLS    CLEAR     67  62  84 NW9       29.93F
WINNER         FAIR      69  51  52 NE7       30.01S
YANKTON        CLEAR     72  66  81 SW6       29.94S
$$

MNZ071-072-080-081-089-090-097-098-230900-
SOUTHWEST MINNESOTA

CITY           SKY/WX    TMP DP  RH WIND       PRES   REMARKS
FAIRMONT       CLEAR     69  65  86 W6        29.87F
JACKSON        CLEAR     68  61  77 CALM      29.89F
MARSHALL       CLEAR     66  61  84 NW10      29.91S
MONTEVIDEO     CLEAR     64  57  77 N7        29.90S
PIPESTONE      CLEAR     68  59  73 N7        29.95S
REDWOOD FALLS  CLEAR     69  61  75 NW8       29.87R
WINDOM         CLEAR     66  61  82 W6        29.89S
WORTHINGTON    CLEAR     69  60  73 W10       29.91F
$$

IAZ001>003-012>014-020>022-031-032-NEZ013-014-SDZ071-230900-
NORTHWEST IOWA

CITY           SKY/WX    TMP DP  RH WIND       PRES   REMARKS
CHEROKEE       CLEAR     67  67 100 CALM      29.91S
DENISON        FOG       70  70 100 SW5       29.94F VSB<1/4
ESTHERVILLE    CLEAR     63  63 100 CALM      29.87F
ORANGE CITY    CLEAR     66  66 100 NW5       29.92S
SHELDON        CLEAR     64  64 100 W5        29.90F
SIOUX CITY     PTCLDY    65  65 100 SW5       29.93R FOG
SPENCER          N/A     64  63  96 W6        29.89F
STORM LAKE     FOG       68  68 100 W8        29.92R VSB<1/4
$$

ABBREVIATIONS USED IN REMARKS
   TC - TEMPERATURE IN CELSIUS
  WCI - WIND CHILL INDEX
   HX - HEAT INDEX
  VSB - VISIBILITY





USA.gov is the U.S. government's official web portal to all federal, state and local government web resources and services.